STARLINK-11308 [DTC] (61246 NORAD) Tracking and Keplerian Element Data

This shows tracking and keplerian element data for the satellite.

Feedback or suggestion? Click here.




ElementValue
Catalog61246
NameSTARLINK-11308 [DTC]
Epoch Orbit279
Epoch Day286.81028503
Epoch Year2024
RAAN66.0081
Inclination53.1554
Eccentricity0.0001576
Argument of Perigee75.7323
Mean Anonmoly284.3873
Mean Motion15.76775552
Decay Rate0.00016698
L11 61246U 24175D 24286.81028503 .00016698 00000+0 10560-3 0 9991
L22 61246 53.1554 66.0081 0001576 75.7323 284.3873 15.76775552 2794



Live tracking and technical data element details for STARLINK-11308 [DTC] (NORAD 61246). STARLINK-11308 [DTC] can be tracked NOW for your location showing map with azimuth and elevation plus other details from your city location.







IsCatalogInMostPopularTable: catalog: 61246, numindb: 24
Update: records affected: 1



GetName: 61246 STARLINK-11308 [DTC]

Hit Count: updated at: Wed, 04 Dec 2024 08:23:25 GMT